| time (UTC) | temp F | wind direction | speed MPH | gust MPH | rain 1hr in | rain 24hr in | rain mn in | humidity % | barometer mb |
| 20260509094518 | 60 | 0.0 | 0.0 | 0.00 | 0.00 | 0.00 | 38 | 1024.4 | |
| 20260509093018 | 60 | 0.0 | 0.0 | 0.00 | 0.00 | 0.00 | 40 | 1024.6 | |
| 20260509090018 | 60 | 0.0 | 0.0 | 0.00 | 0.00 | 0.00 | 43 | 1024.8 | |
| 20260509084518 | 60 | 0.0 | 0.0 | 0.00 | 0.00 | 0.00 | 44 | 1024.9 | |
| 20260509083018 | 59 | 0.0 | 0.0 | 0.00 | 0.00 | 0.00 | 47 | 1024.9 | |
| 20260509081518 | 57 | 0.0 | 0.0 | 0.00 | 0.00 | 0.00 | 49 | 1025.1 | |
| 20260509080018 | 56 | 0.0 | 0.0 | 0.00 | 0.00 | 0.00 | 51 | 1025.3 | |
| 20260509073018 | 55 | 0.0 | 0.0 | 0.00 | 0.00 | 0.00 | 58 | 1025.3 | |
| 20260509071532 | 54 | 0.0 | 0.0 | 0.00 | 0.00 | 0.00 | 62 | 1025.2 | |
| 20260509064523 | 53 | 0.0 | 0.0 | 0.00 | 0.00 | 0.00 | 72 | 1025.3 | |
| 20260509063023 | 52 | 0.0 | 0.0 | 0.00 | 0.00 | 0.00 | 76 | 1025.4 | |
| 20260509061517 | 51 | 0.0 | 0.0 | 0.00 | 0.00 | 0.00 | 82 | 1025.4 | |
| 20260509060019 | 50 | 0.0 | 0.0 | 0.00 | 0.00 | 0.00 | 87 | 1025.4 | |
| 20260509054517 | 48 | 0.0 | 0.0 | 0.00 | 0.00 | 0.00 | 92 | 1025.4 | |
| 20260509053018 | 46 | 0.0 | 0.0 | 0.00 | 0.00 | 0.00 | 97 | 1025.3 | |
| 20260509051518 | 44 | 0.0 | 0.0 | 0.00 | 0.00 | 0.00 | 10 | 1025.3 | |
| 20260509050018 | 41 | 0.0 | 0.0 | 0.00 | 0.00 | 0.00 | 10 | 1025.3 | |
| 20260509044518 | 39 | 0.0 | 0.0 | 0.00 | 0.00 | 0.00 | 10 | 1025.4 | |
| 20260509043018 | 38 | 0.0 | 0.0 | 0.00 | 0.00 | 0.00 | 10 | 1025.3 | |
| 20260509040018 | 34 | 0.0 | 0.0 | 0.00 | 0.00 | 0.00 | 10 | 1025.2 | |
| 20260509034517 | 33 | 0.0 | 0.0 | 0.00 | 0.00 | 0.00 | 10 | 1025.3 | |
| 20260509033018 | 32 | 0.0 | 0.0 | 0.00 | 0.00 | 0.00 | 10 | 1025.1 | |
| 20260509030018 | 30 | 0.0 | 0.0 | 0.00 | 0.00 | 0.00 | 10 | 1024.9 | |
| 20260509023018 | 28 | 0.0 | 0.0 | 0.00 | 0.00 | 0.00 | 10 | 1024.8 | |
| 20260509021518 | 28 | 0.0 | 0.0 | 0.00 | 0.00 | 0.00 | 10 | 1024.7 | |
| 20260509020017 | 28 | 0.0 | 0.0 | 0.00 | 0.00 | 0.00 | 10 | 1024.6 | |
| 20260509014517 | 28 | 0.0 | 0.0 | 0.00 | 0.00 | 0.00 | 99 | 1024.6 | |
| 20260509011518 | 28 | 0.0 | 0.0 | 0.00 | 0.00 | 0.00 | 97 | 1024.5 | |
| 20260509010018 | 28 | 0.0 | 0.0 | 0.00 | 0.00 | 0.00 | 95 | 1024.6 | |
| 20260509004518 | 29 | 0.0 | 0.0 | 0.00 | 0.00 | 0.00 | 94 | 1024.4 | |
| 20260509003018 | 29 | 0.0 | 0.0 | 0.00 | 0.00 | 0.00 | 93 | 1024.3 | |
| 20260509001518 | 30 | 0.0 | 0.0 | 0.00 | 0.00 | 0.00 | 92 | 1024.3 | |
| 20260509000018 | 30 | 0.0 | 0.0 | 0.00 | 0.00 | 0.00 | 90 | 1024.3 | |
| 20260508234518 | 30 | 0.0 | 0.0 | 0.00 | 0.00 | 0.00 | 89 | 1024.1 | |
| 20260508233017 | 31 | 0.0 | 0.0 | 0.00 | 0.00 | 0.00 | 88 | 1024.1 | |
| 20260508231518 | 31 | 0.0 | 0.0 | 0.00 | 0.00 | 0.00 | 86 | 1024.0 | |
| 20260508230018 | 32 | 0.0 | 0.0 | 0.00 | 0.00 | 0.00 | 84 | 1023.9 | |
| 20260508221518 | 33 | 0.0 | 0.0 | 0.00 | 0.00 | 0.00 | 78 | 1023.9 | |
| 20260508220018 | 33 | 0.0 | 0.0 | 0.00 | 0.00 | 0.00 | 76 | 1023.9 | |
| 20260508214518 | 34 | 0.0 | 0.0 | 0.00 | 0.00 | 0.00 | 74 | 1023.9 | |
| 20260508213018 | 35 | 0.0 | 0.0 | 0.00 | 0.00 | 0.00 | 72 | 1023.9 | |
| 20260508211517 | 35 | 0.0 | 0.0 | 0.00 | 0.00 | 0.00 | 69 | 1023.8 | |
| 20260508210018 | 36 | 0.0 | 0.0 | 0.00 | 0.00 | 0.00 | 67 | 1023.6 | |
| 20260508204519 | 37 | 0.0 | 0.0 | 0.00 | 0.00 | 0.00 | 64 | 1023.5 | |
| 20260508203018 | 38 | 0.0 | 0.0 | 0.00 | 0.00 | 0.00 | 63 | 1023.5 | |
| 20260508201519 | 39 | 0.0 | 0.0 | 0.00 | 0.00 | 0.00 | 61 | 1023.4 | |
| 20260508200018 | 40 | 0.0 | 0.0 | 0.00 | 0.00 | 0.00 | 59 | 1023.3 | |
| 20260508194517 | 41 | 0.0 | 0.0 | 0.00 | 0.00 | 0.00 | 56 | 1023.0 | |
| 20260508193017 | 42 | 0.0 | 0.0 | 0.00 | 0.00 | 0.00 | 54 | 1023.0 | |
| 20260508190018 | 44 | 0.0 | 0.0 | 0.00 | 0.00 | 0.00 | 48 | 1022.9 | |
| 20260508184517 | 46 | 0.0 | 0.0 | 0.00 | 0.00 | 0.00 | 46 | 1023.0 | |
| 20260508183018 | 47 | 0.0 | 0.0 | 0.00 | 0.00 | 0.00 | 44 | 1022.9 | |
| 20260508181518 | 49 | 0.0 | 0.0 | 0.00 | 0.00 | 0.00 | 42 | 1022.8 | |
| 20260508180018 | 50 | 0.0 | 0.0 | 0.00 | 0.00 | 0.00 | 40 | 1022.6 | |
| 20260508174518 | 51 | 0.0 | 0.0 | 0.00 | 0.00 | 0.00 | 39 | 1022.4 | |
| 20260508173017 | 53 | 0.0 | 0.0 | 0.00 | 0.00 | 0.00 | 38 | 1022.4 | |
| 20260508164518 | 56 | 0.0 | 0.0 | 0.00 | 0.00 | 0.00 | 33 | 1021.9 | |
| 20260508163017 | 57 | 0.0 | 0.0 | 0.00 | 0.00 | 0.00 | 31 | 1021.8 | |
| 20260508154517 | 60 | 0.0 | 0.0 | 0.00 | 0.00 | 0.00 | 29 | 1021.3 | |
| 20260508151519 | 62 | 0.0 | 0.0 | 0.00 | 0.00 | 0.00 | 29 | 1021.2 | |
| 20260508150023 | 63 | 0.0 | 0.0 | 0.00 | 0.00 | 0.00 | 28 | 1021.3 | |
| 20260508141518 | 63 | 0.0 | 0.0 | 0.00 | 0.00 | 0.00 | 29 | 1021.4 | |
| 20260508140018 | 63 | 0.0 | 0.0 | 0.00 | 0.00 | 0.00 | 29 | 1021.5 | |
| 20260508134518 | 63 | 0.0 | 0.0 | 0.00 | 0.00 | 0.00 | 29 | 1021.6 | |
| 20260508133018 | 62 | 0.0 | 0.0 | 0.00 | 0.00 | 0.00 | 30 | 1021.5 | |
| 20260508131519 | 63 | 0.0 | 0.0 | 0.00 | 0.00 | 0.00 | 31 | 1021.6 | |
| 20260508121518 | 60 | 0.0 | 0.0 | 0.00 | 0.00 | 0.00 | 34 | 1021.9 | |
| 20260508120018 | 59 | 0.0 | 0.0 | 0.00 | 0.00 | 0.00 | 35 | 1022.0 | |
| 20260508113018 | 57 | 0.0 | 0.0 | 0.00 | 0.00 | 0.00 | 36 | 1021.9 | |
| 20260508111517 | 57 | 0.0 | 0.0 | 0.00 | 0.00 | 0.00 | 36 | 1022.0 | |
| 20260508104517 | 56 | 0.0 | 0.0 | 0.00 | 0.00 | 0.00 | 38 | 1022.1 | |
| 20260508103018 | 56 | 0.0 | 0.0 | 0.00 | 0.00 | 0.00 | 38 | 1022.1 | |
| 20260508101518 | 57 | 0.0 | 0.0 | 0.00 | 0.00 | 0.00 | 38 | 1022.0 | |
| 20260508100023 | 57 | 0.0 | 0.0 | 0.00 | 0.00 | 0.00 | 39 | 1022.0 |